[[{"header":{"parameterUnit":"m.s-1","parameterCategory":1,"la1":30.2991,"la2":30.254,"lo1":-89.0895,"lo2":-89.0444,"dy":0.0017,"dx":0.0017,"nx":28,"ny":28,"refTime":"2023-08-15T21:00:00:Z","depth":0,"parameterNumber":2,"parameterNumberName":"U-component_of_WINDS"},"data":[0,0,0,0,0,0,0,0,0,0,0,0,0,0,0,0,0,0,0,0,0,0,0,0,0,0,0,0,0,0,0,0,0,0,0,0,0,0,0,0,0,0,0,0,0,0,0,0,0,0,0,0,0,0,0,0,0,0,0.17,0.1701,0,0.1804,0.1805,0.1806,0.1859,0.1859,0.1859,0.1859,0.1966,0.1968,0.1971,0,0,0,0,0,0,0,0,0,0,0,0,0,0.1549,0.1551,0.17,0.1702,0.1703,0.1803,0.1805,0.1806,0.1859,0.1859,0.1859,0.1859,0.1965,0.1968,0.1971,0,0,0,0,0,0,0,0,0,0,0,0,0,0.1629,0.1552,0.17,0.1741,0.1746,0.1803,0.1805,0.1807,0.1859,0.1859,0.1859,0.1859,0.1964,0.1968,0.1972,0.1996,0,0,0.1985,0.1986,0,0,0,0,0,0,0,0,0.1625,0.1635,0.1734,0.1738,0.1744,0.1818,0.1791,0.187,0.1859,0.1816,0.1859,0.1859,0.1917,0.1925,0.1944,0.2001,0.2006,0.1985,0.1988,0.1989,0.1991,0,0,0,0,0,0,0,0.1619,0.1631,0.1741,0.1735,0.1741,0.1754,0.1766,0.1806,0.1865,0.182,0.1824,0.1835,0.1919,0.194,0.1947,0.2008,0.1985,0.1989,0.1991,0.1993,0.209,0.209,0,0,0,0,0,0,0.1607,0.1626,0.1738,0.1744,0.1683,0.1757,0.177,0.1794,0.1864,0.1875,0.1835,0.1837,0.1933,0.1942,0.1951,0.1984,0.1989,0.1993,0.1996,0.209,0.209,0.209,0,0,0,0,0,0,0.1603,0.1616,0.1734,0.1686,0.1702,0.176,0.1786,0.1796,0.1817,0.1876,0.1887,0.1845,0.1933,0.1945,0.1984,0.1988,0.1995,0.1999,0.209,0.209,0.209,0.205,0,0,0,0,0,0,0.1599,0.1615,0.1625,0.1686,0.1704,0.1765,0.1787,0.1798,0.1824,0.1828,0.1888,0.1898,0.1934,0.1978,0.1989,0.1994,0.2002,0.2089,0.209,0.209,0.2051,0.2049,0.2046,0,0,0,0,0,0.1593,0.161,0.1625,0.1638,0.1718,0.1766,0.1776,0.1816,0.1824,0.1834,0.1872,0.1896,0.1986,0.1981,0.1994,0.2001,0.2089,0.209,0.209,0.2052,0.2049,0.2047,0,0,0,0,0,0,0.1548,0.1618,0.1636,0.1673,0.1713,0.1774,0.1789,0.1812,0.1851,0.1853,0.1902,0.1915,0.195,0.1979,0.1973,0.2028,0.204,0.2043,0.2007,0.2005,0.2003,0.1995,0.2006,0,0,0,0,0,0.1542,0.1574,0.1635,0.1661,0.168,0.1731,0.1753,0.1781,0.1824,0.1841,0.1882,0.1923,0.1961,0.1985,0.2022,0.2056,0.2069,0.2066,0.2064,0.2062,0.2064,0.2083,0.2082,0.209,0.209,0.209,0,0,0.153,0.1573,0.1591,0.1653,0.1687,0.172,0.1745,0.1778,0.1803,0.1847,0.1886,0.1917,0.1967,0.2003,0.2021,0.2029,0.2064,0.2062,0.206,0.2063,0.2083,0.2082,0.2081,0.209,0.209,0.209,0,0,0.1526,0.1562,0.1588,0.1621,0.1672,0.1706,0.1712,0.177,0.1792,0.1832,0.1865,0.1895,0.1959,0.1993,0.2018,0.2025,0.2049,0.2036,0.2024,0.2042,0.2041,0.2041,0.2043,0.2043,0.2038,0.2038,0.2037,0,0.1505,0.1556,0.1598,0.163,0.1656,0.1696,0.1723,0.1753,0.1814,0.1831,0.1839,0.1919,0.1955,0.1999,0.2001,0.202,0.2028,0.203,0.2038,0.2038,0.2038,0.2041,0.2042,0.2036,0.2036,0.2036,0.2036,0,0.1528,0.1562,0.1577,0.1634,0.1662,0.1691,0.1737,0.176,0.1785,0.1818,0.1858,0.1902,0.195,0.1962,0.1987,0.201,0.2013,0.2029,0.2042,0.2035,0.2038,0.204,0.2033,0.2034,0.2034,0.2035,0,0,0.1498,0.1578,0.1582,0.1609,0.1667,0.1695,0.1725,0.1771,0.179,0.183,0.1856,0.1909,0.1923,0.1952,0.1981,0.1997,0.1999,0.2011,0.2013,0.2007,0.2026,0.2014,0.2014,0.2015,0.2015,0.2015,0.2022,0,0.1502,0.1558,0.1597,0.1638,0.167,0.1708,0.1735,0.1773,0.1804,0.1836,0.187,0.1906,0.1923,0.194,0.1958,0.1995,0.2003,0.1995,0.204,0.2041,0.2026,0.2016,0.2003,0.2007,0.2023,0.2024,0.2024,0,0.1514,0.1553,0.1597,0.1651,0.1666,0.1689,0.1734,0.1764,0.1808,0.183,0.1861,0.189,0.1924,0.1934,0.198,0.1974,0.1994,0.2015,0.2016,0.2022,0.2032,0.2021,0.201,0.201,0.2026,0.2026,0.2026,0,0.1487,0.1551,0.1585,0.1606,0.1671,0.1686,0.1714,0.1759,0.1783,0.1822,0.1839,0.1881,0.1904,0.1936,0.1976,0.198,0.2018,0.2032,0.2037,0.2036,0.2043,0.2042,0.2034,0.2057,0.2057,0.2057,0.2057,0,0.1488,0.1513,0.1574,0.1595,0.1624,0.1668,0.1696,0.1727,0.1766,0.1794,0.183,0.1855,0.1906,0.1937,0.1969,0.2002,0.2013,0.2031,0.2039,0.2027,0.2025,0.2041,0.2042,0.2057,0.2057,0.2057,0.2057,0,0.1463,0.1505,0.1545,0.1603,0.1618,0.1637,0.1686,0.1708,0.1741,0.1775,0.1786,0.1837,0.1875,0.1918,0.1971,0.1992,0.2024,0.2035,0.2008,0.2013,0.2015,0.2014,0.2018,0.202,0.2041,0.204,0.204,0,0.146,0.1481,0.154,0.1561,0.1588,0.1621,0.1647,0.169,0.1715,0.1767,0.1782,0.1823,0.1859,0.1919,0.196,0.2001,0.2014,0.2012,0.202,0.2008,0.2013,0.2011,0.2013,0.201,0.2009,0.2009,0.2009,0,0.1451,0.147,0.1505,0.1547,0.1576,0.1611,0.1648,0.1663,0.1714,0.174,0.1779,0.1806,0.186,0.19,0.1946,0.1975,0.2,0.2006,0.2009,0.1998,0.1981,0.1989,0.2002,0.2006,0.2006,0.2006,0.2006,0.2006,0.1437,0.1457,0.1501,0.1539,0.1571,0.1604,0.1627,0.1662,0.1696,0.1743,0.1767,0.1806,0.1849,0.1913,0.1941,0.1972,0.198,0.1985,0.1986,0.1986,0.1983,0.1976,0.198,0.198,0.1981,0.1981,0.1981,0,0.1429,0.1459,0.1493,0.1543,0.1572,0.1593,0.1635,0.1658,0.1692,0.173,0.1764,0.1809,0.1848,0.1892,0.1934,0.195,0.1963,0.196,0.1959,0.1965,0.1974,0.1966,0.1949,0.1949,0.1949,0.1949,0.1949,0.1949,0.1428,0.1462,0.1487,0.1537,0.1567,0.1606,0.1627,0.1658,0.1689,0.1737,0.177,0.1798,0.1839,0.1884,0.192,0.1932,0.1946,0.1939,0.1954,0.1962,0.1964,0.1967,0.196,0.1942,0.1942,0.1943,0.1943,0.1943]},{"header":{"parameterUnit":"m.s-1","parameterCategory":1,"la1":30.2991,"la2":30.254,"lo1":-89.0895,"lo2":-89.0444,"dy":0.0017,"dx":0.0017,"nx":28,"ny":28,"refTime":"2023-08-15T21:00:00:Z","depth":0,"parameterNumber":3,"parameterNumberName":"V-component_of_WINDS"},"data":[0,0,0,0,0,0,0,0,0,0,0,0,0,0,0,0,0,0,0,0,0,0,0,0,0,0,0,0,0,0,0,0,0,0,0,0,0,0,0,0,0,0,0,0,0,0,0,0,0,0,0,0,0,0,0,0,0,0,3.4784,3.4784,0,3.4776,3.4776,3.4776,3.4763,3.4763,3.4763,3.4762,3.4754,3.4754,3.4754,0,0,0,0,0,0,0,0,0,0,0,0,0,3.4787,3.4787,3.4784,3.4784,3.4784,3.4776,3.4776,3.4776,3.4763,3.4763,3.4763,3.4762,3.4754,3.4754,3.4754,0,0,0,0,0,0,0,0,0,0,0,0,0,3.4783,3.4787,3.4784,3.4776,3.4776,3.4776,3.4776,3.4776,3.4763,3.4763,3.4762,3.4762,3.4754,3.4754,3.4754,3.4761,0,0,3.4754,3.4754,0,0,0,0,0,0,0,0,3.4783,3.4783,3.4778,3.4777,3.4776,3.477,3.4774,3.4771,3.4763,3.4768,3.4762,3.4762,3.476,3.4759,3.4759,3.4761,3.4761,3.4754,3.4754,3.4754,3.4754,0,0,0,0,0,0,0,3.4784,3.4783,3.4781,3.4777,3.4777,3.4773,3.4772,3.4773,3.4766,3.4767,3.4766,3.4766,3.4759,3.4759,3.4758,3.476,3.4754,3.4754,3.4754,3.4754,3.4767,3.4768,0,0,0,0,0,0,3.4785,3.4783,3.4781,3.478,3.4779,3.4773,3.4772,3.4772,3.4766,3.4764,3.4766,3.4765,3.4759,3.4758,3.4758,3.4765,3.4754,3.4754,3.4754,3.4767,3.4767,3.4768,0,0,0,0,0,0,3.4785,3.4785,3.4781,3.4782,3.4781,3.4774,3.4774,3.4772,3.4772,3.4765,3.4763,3.4767,3.4758,3.4758,3.476,3.4765,3.4754,3.4754,3.4766,3.4767,3.4767,3.478,0,0,0,0,0,0,3.4785,3.4785,3.4788,3.4782,3.4781,3.4784,3.4774,3.4773,3.4772,3.4771,3.4765,3.4764,3.4758,3.476,3.476,3.4764,3.4754,3.4766,3.4767,3.4767,3.4779,3.4781,3.4782,0,0,0,0,0,3.4785,3.4792,3.4788,3.4788,3.4784,3.4784,3.4784,3.4777,3.4772,3.4775,3.477,3.4764,3.4764,3.4761,3.4761,3.4765,3.4766,3.4767,3.4767,3.4778,3.478,3.4782,0,0,0,0,0,0,3.4798,3.4791,3.4787,3.4791,3.4788,3.4782,3.4785,3.478,3.4778,3.4777,3.4769,3.4768,3.4771,3.4768,3.4764,3.4771,3.4764,3.4765,3.4772,3.4774,3.4776,3.4776,3.4754,0,0,0,0,0,3.4801,3.4802,3.4796,3.48,3.4799,3.4792,3.4792,3.4787,3.4784,3.4783,3.4779,3.4776,3.4775,3.4775,3.4774,3.4779,3.4777,3.4782,3.4783,3.4784,3.4785,3.4787,3.4788,3.477,3.477,3.477,0,0,3.4808,3.4804,3.4805,3.4803,3.48,3.4801,3.4791,3.4793,3.4793,3.4783,3.4785,3.4782,3.4778,3.4781,3.4783,3.4779,3.479,3.4785,3.4787,3.4786,3.4788,3.4789,3.4791,3.4771,3.4771,3.4771,0,0,3.4821,3.4818,3.4821,3.4819,3.4815,3.4811,3.4811,3.4806,3.4803,3.4805,3.4797,3.4798,3.4797,3.4794,3.4793,3.4804,3.4798,3.4804,3.4812,3.4814,3.4815,3.4816,3.482,3.4821,3.4805,3.4805,3.4805,0,3.483,3.483,3.4824,3.4825,3.4824,3.4815,3.4818,3.4816,3.4812,3.4811,3.4807,3.4806,3.4803,3.4805,3.4808,3.4807,3.4807,3.4804,3.4816,3.4817,3.4818,3.4821,3.4822,3.4806,3.4805,3.4805,3.4805,0,3.4841,3.4842,3.4845,3.4841,3.484,3.4842,3.4836,3.4836,3.4831,3.4827,3.4828,3.4824,3.4822,3.4823,3.4818,3.4824,3.4822,3.4817,3.481,3.482,3.4823,3.4824,3.4806,3.4806,3.4806,3.4806,0,0,3.4861,3.4853,3.4854,3.4852,3.4847,3.4848,3.4849,3.4847,3.4847,3.4845,3.4845,3.4845,3.484,3.4838,3.4834,3.4835,3.4844,3.483,3.483,3.4832,3.4849,3.4852,3.4854,3.484,3.484,3.484,3.4849,0,3.4871,3.4874,3.4868,3.4872,3.4872,3.4864,3.4865,3.4862,3.4858,3.4857,3.4853,3.4853,3.4847,3.4846,3.4847,3.4842,3.4847,3.4842,3.484,3.484,3.484,3.4855,3.4859,3.4867,3.485,3.485,3.485,0,3.4884,3.4882,3.4886,3.488,3.488,3.4882,3.4879,3.4879,3.4875,3.4872,3.487,3.4865,3.4865,3.4859,3.486,3.4857,3.4856,3.4853,3.4853,3.4852,3.4845,3.4854,3.487,3.4871,3.4852,3.4852,3.4852,0,3.4897,3.4895,3.4897,3.4896,3.489,3.4891,3.4888,3.4884,3.4883,3.4881,3.488,3.4878,3.4877,3.4875,3.4869,3.4865,3.487,3.4863,3.4867,3.4867,3.4868,3.4868,3.4883,3.4869,3.4869,3.4869,3.4868,0,3.4909,3.4911,3.4903,3.4904,3.4906,3.4899,3.4902,3.4898,3.4895,3.4895,3.4888,3.4888,3.488,3.4879,3.4875,3.4876,3.4875,3.4873,3.4871,3.4873,3.4873,3.4871,3.487,3.4869,3.4869,3.4869,3.4869,0,3.4923,3.4918,3.4919,3.4913,3.4912,3.4914,3.4908,3.4909,3.4905,3.4905,3.4904,3.4898,3.4896,3.489,3.4888,3.4884,3.4887,3.4884,3.4888,3.4887,3.489,3.489,3.4904,3.4906,3.4891,3.4891,3.4892,0,3.4931,3.4932,3.4927,3.4926,3.4924,3.4923,3.4922,3.4916,3.4915,3.4911,3.4911,3.491,3.4908,3.4906,3.49,3.4898,3.4895,3.4901,3.4895,3.4896,3.4894,3.4894,3.4894,3.4902,3.4902,3.4902,3.4902,0,3.4944,3.4942,3.494,3.4938,3.4937,3.4935,3.4932,3.4932,3.4925,3.4924,3.4923,3.4921,3.4918,3.4916,3.4913,3.491,3.4905,3.4904,3.4905,3.4906,3.4907,3.4906,3.489,3.4904,3.4903,3.4903,3.4903,3.4903,3.4955,3.4956,3.4952,3.495,3.4948,3.4946,3.4946,3.4942,3.494,3.4937,3.4934,3.4933,3.4928,3.4924,3.4921,3.492,3.4917,3.4918,3.4918,3.4918,3.4919,3.4908,3.4919,3.4919,3.4919,3.4919,3.4919,0,3.4967,3.4964,3.4963,3.496,3.4959,3.4954,3.4951,3.495,3.495,3.4946,3.4945,3.4943,3.4941,3.4935,3.4933,3.4933,3.493,3.4932,3.4932,3.4931,3.4922,3.4921,3.4934,3.4934,3.4934,3.4934,3.4934,3.4934,3.4974,3.4974,3.4971,3.4971,3.4968,3.4967,3.4965,3.4963,3.496,3.4959,3.4957,3.4954,3.4949,3.4946,3.4944,3.4943,3.4942,3.4944,3.4942,3.4933,3.4932,3.493,3.493,3.4944,3.4944,3.4951,3.4951,3.4951]}]]